Location: Dietlikon
(47.4251°N, 8.6188°E)
Time: 02:21:47
(UTC+00:00)

Daily predictions for brighter satellites

Satellite Brightness Start Highest point End
(mag) Time Altitude Azimuth Time Altitude Azimuth Time Altitude Azimuth
CENTAUR R/B 4.3 02:14:21 38° E 02:14:21 38° E 02:19:46 10° ESE
Lacrosse 5 4.4 02:52:48 17° E 02:52:48 17° E 02:54:39 10° ENE
Cosmos 2263 Rocket 3.9 03:01:26 30° ENE 03:01:26 30° ENE 03:04:41 10° NE
SJ 16-02 4.1 03:08:47 16° ENE 03:08:47 16° ENE 03:10:29 10° NE
CZ-4C R/B 4.2 03:25:49 15° SSE 03:28:21 22° ESE 03:32:31 10° ENE
BREEZE-M DEB (TANK) 4.4 03:30:34 81° NNW 03:30:48 83° N 03:35:11 10° E
ATLAS 3B R/B 3.5 03:30:35 41° N 03:32:06 47° NE 03:38:56 10° ESE
Cosmos 1943 4.2 03:36:00 39° SSE 03:36:00 39° SSE 03:39:27 10° SSE
Lacrosse 4 Rocket 3.6 03:38:11 23° SE 03:38:11 23° SE 03:39:54 10° SE
Cosmos 2227 Rocket 4.4 03:57:13 13° N 03:57:13 13° N 03:57:58 10° N
Cosmos 923 Rocket 4.3 03:53:37 61° NE 03:54:00 63° ENE 03:59:16 10° SSE
ALOS 3.0 03:49:29 10° NNE 03:53:16 50° ENE 03:53:16 50° ENE
NOSS 3-2 (C) 4.1 04:00:07 54° WSW 04:00:14 54° WSW 04:08:28 10° SSE
Cosmos 2227 4.4 04:01:36 58° N 04:01:36 58° N 04:06:12 10° NNE
NOSS 3-4 (A) 3.3 04:00:50 64° SSW 04:01:48 82° SE 04:08:09 10° NE
NOSS 3-4 (C) 3.3 04:00:54 63° SSW 04:01:56 82° SE 04:08:17 10° NE
CENTAUR R/B 3.2 04:01:35 53° WSW 04:02:13 54° WSW 04:10:44 10° SSE
ARGOS Delta rocket 4.0 04:00:01 10° NNE 04:04:43 72° NNE 04:04:43 72° NNE
Meteor 1-31 Rocket 4.4 04:03:01 10° NNE 04:05:08 28° NE 04:05:08 28° NE
USA 306 4.3 04:10:52 30° NNE 04:10:52 30° NNE 04:13:51 10° ENE
Cosmos 158 Rocket 3.8 04:10:38 82° NE 04:10:46 83° ENE 04:15:44 10° SSE
SL-4 R/B 3.2 04:15:03 34° NE 04:15:03 34° NE 04:17:30 10° ENE
Cosmos 1151 Rocket 3.9 04:17:01 39° S 04:17:01 39° S 04:19:44 10° S
Cosmos 1782 3.3 04:16:34 56° NE 04:16:54 59° ENE 04:20:52 10° SSE
SKYMED 2 4.1 04:13:21 10° SSE 04:17:37 58° ENE 04:19:24 32° N
Cosmos 1844 Rocket 4.1 04:12:44 10° S 04:17:51 37° ESE 04:23:01 10° NE
ATLAS 2AS CENTAUR R/B 3.0 04:15:31 20° SW 04:21:28 87° SE 04:29:21 10° NE
ERS-2 4.3 04:18:20 10° S 04:19:17 17° S 04:19:17 17° S
Cosmos 1680 Rocket 3.5 04:20:02 40° NNW 04:22:00 82° ENE 04:27:19 10° SSE
FALCON 9 DEB 4.5 04:24:39 36° E 04:24:39 36° E 04:26:51 10° ENE
Cosmos 2297 Rocket 4.4 04:30:30 10° NNW 04:30:30 10° NNW 04:30:45 10° N
ATLAS 5 CENTAUR R/B 3.5 04:31:19 22° N 04:31:19 22° N 04:32:25 10° NNE
Atlas Centaur 2 4.4 04:26:40 11° SSW 04:29:40 15° S 04:32:48 10° SSE
RESURS DK-1 3.3 04:27:56 10° S 04:31:57 48° ESE 04:35:58 10° NE
ATLAS CENTAUR R/B 1.6 04:32:06 52° NNE 04:32:31 56° NE 04:36:22 10° SE
CRYOSAT 2 4.3 04:27:50 10° S 04:32:41 89° ENE 04:37:36 10° N
Lacrosse 5 1.8 04:32:03 48° SW 04:33:28 89° SSE 04:38:34 10° NE
ADEOS 3.4 04:28:43 10° N 04:33:56 72° WNW 04:39:08 10° SSW
Cosmos 1328 Rocket 3.5 04:35:39 63° WSW 04:35:39 63° WSW 04:39:50 10° S
ERBS 4.4 04:38:12 18° NNE 04:38:12 18° NNE 04:39:29 10° NE
H-2A R/B 4.5 04:36:21 10° NNE 04:39:57 34° E 04:43:31 10° SSE
Cosmos 2112 Rocket 3.9 04:38:53 28° NNW 04:41:47 82° WSW 04:47:07 10° SSE
Cosmos 2263 Rocket 2.6 04:43:11 38° WNW 04:43:22 39° NW 04:48:42 10° NNE
Gbstr 26 Del rocket 2.6 04:43:34 63° SW 04:43:42 64° SSW 04:47:32 10° SE
SJ 16-02 1.5 04:45:52 48° NW 04:45:52 48° NW 04:49:54 10° N
Meteor 1-26 Rocket 4.4 04:48:59 18° NNW 04:53:02 49° W 04:58:25 10° SSW
Cosmos 1898 Rocket 3.5 04:47:44 10° SSW 04:53:03 86° ESE 04:58:26 10° NNE
CZ-2C R/B 4.5 04:50:59 10° ESE 04:55:38 30° ENE 05:00:14 10° N
FALCON 9 DEB 2.8 04:56:35 68° WSW 04:56:57 88° SSE 05:00:11 10° ENE
FALCON 9 DEB 2.8 04:56:45 70° WSW 04:57:04 88° NNW 05:00:18 10° ENE
FENGYUN 3A 4.0 04:53:40 10° N 04:58:43 41° WNW 05:03:44 10° SW
Envisat 4.3 04:54:20 10° NNE 04:59:10 42° E 05:03:58 10° S
Cosmos 1743 Rocket 3.7 04:56:01 10° S 05:00:27 78° E 05:04:57 10° NNE
Cosmos 1408 Rocket 3.6 04:58:07 10° SSW 05:02:29 54° WNW 05:06:53 10° N
H-2A R/B 4.2 04:59:07 10° NNE 05:02:36 31° E 05:06:02 10° SSE
Cosmos 2082 Rocket 4.3 04:59:40 10° N 05:03:44 20° NE 05:07:49 10° E
Cosmos 2181 Rocket 4.2 04:58:17 10° NNW 05:04:06 43° W 05:09:49 10° SSW
NOSS 7 (H) 4.5 05:01:45 11° SSW 05:04:57 66° SE 05:07:53 10° NE
COSMO-SKYMED 1 2.8 05:01:31 10° S 05:05:41 46° W 05:08:00 24° NW
USA 307 3.9 05:05:08 26° NW 05:06:46 36° N 05:10:47 10° ENE
Cosmos 1937 Rocket 3.4 05:04:58 10° SSW 05:10:08 88° ESE 05:15:22 10° NNE
USA 308 3.9 05:11:14 24° NW 05:13:09 37° N 05:17:11 10° ENE
Lacrosse 4 Rocket 3.2 05:14:32 17° WSW 05:14:32 17° WSW 05:16:47 10° SSW
Cosmos 1833 Rocket 4.2 05:09:24 10° NNW 05:14:29 33° NE 05:19:31 10° ESE
Meteor 2-3 Rocket 4.2 05:09:25 10° SW 05:14:43 38° WNW 05:20:06 10° N
MOS 1 Rocket 3.4 05:11:13 10° SSE 05:16:02 88° WSW 05:21:13 10° NNW
CZ-4C R/B 2.1 05:11:05 10° SW 05:16:05 67° NW 05:22:10 10° NE
Cosmos 2154 Rocket 4.1 05:10:05 10° S 05:16:18 82° E 05:22:36 10° N
CZ-4B R/B 3.2 05:13:04 10° N 05:17:28 54° WNW 05:21:45 10° SSW
Meteor 1-27 Rocket 4.2 05:12:54 10° N 05:18:39 65° ENE 05:24:28 10° SSE
Cosmos 1689 Rocket 3.1 05:16:09 10° SSW 05:18:11 28° WSW 05:18:11 28° WSW
Cosmos 1805 Rocket 4.1 05:15:17 10° S 05:19:39 63° E 05:24:04 10° NNE
FALCON 9 DEB 2.9 05:18:33 33° W 05:19:49 65° NNW 05:23:02 10° ENE
Meteor 1-10 Rocket 4.1 05:15:06 10° NNW 05:20:41 79° W 05:26:17 10° S
ATLAS 3B R/B 3.0 05:17:51 18° NW 05:22:56 51° WSW 05:29:51 10° SSE
Aureole 2 Rocket 1.8 05:21:30 10° SSW 05:24:02 71° ESE 05:26:35 10° NNE
COSMOS 2406 4.2 05:19:11 10° NNW 05:24:42 46° NE 05:30:13 10° SE
Cosmos 1862 3.3 05:23:12 10° SSW 05:27:13 63° W 05:31:16 10° N
YAOGAN 6 2.7 05:24:44 10° NNE 05:28:15 74° ESE 05:31:43 10° S
Genesis I 3.2 05:25:01 10° SW 05:28:46 55° NW 05:32:34 10° NNE
deb Chang Zheng 4 4.5 05:27:27 10° N 05:31:05 26° WNW 05:34:43 10° WSW
ALOS 3.5 05:27:50 10° NNW 05:31:07 19° WNW 05:31:45 19° WNW
Cosmos 2278 Rocket 4.4 05:28:34 10° SSE 05:33:21 29° ESE 05:38:11 10° NE
Cosmos 858 Rocket 4.5 05:29:20 10° SW 05:34:29 61° WNW 05:39:42 10° NNE
Cosmos 2327 Rocket 4.4 05:29:40 10° SSW 05:35:44 71° W 05:41:51 10° N
Cosmos 990 Rocket 4.4 05:31:02 10° SW 05:35:56 39° WNW 05:40:53 10° N
PSLV R/B 3.6 05:33:12 10° N 05:37:05 69° WNW 05:40:50 10° SSW
Cosmos 2074 Rocket 4.2 05:31:18 10° SSW 05:37:15 47° WNW 05:43:14 10° N
ASTRO F (AKARI) 4.5 05:36:03 10° N 05:39:01 43° WNW 05:42:01 10° SW
Meteor 1-31 Rocket 4.3 05:38:22 10° NNW 05:40:29 16° NW 05:40:29 16° NW
USA 305 3.6 05:38:55 16° NW 05:42:08 43° NNE 05:46:15 10° E
BREEZE M DEB (TANK) 3.2 05:35:27 10° SW 05:42:28 52° SSE 05:45:06 10° E
Cosmos 405 Rocket 2.9 05:39:32 10° SSW 05:43:06 44° WNW 05:46:44 10° N
SL-24 DEB 4.2 05:38:28 10° S 05:43:13 74° W 05:48:02 10° N
Cosmos 1812 3.4 05:43:32 10° NNW 05:47:02 34° W 05:50:31 10° SSW
EO 1 Delta rocket 4.4 05:42:22 10° SSW 05:47:04 38° W 05:51:23 10° NNW
Cosmos 1295 Rocket 4.4 05:42:38 10° SSW 05:48:42 71° W 05:54:48 10° N
Cosmos 2228 Rocket 3.6 05:45:27 10° NNW 05:49:33 38° W 05:53:36 10° SSW
USA 306 3.6 05:47:01 13° NW 05:50:36 46° NNE 05:54:45 10° E
Cosmos 1633 Rocket 3.9 05:48:54 10° S 05:53:13 56° E 05:57:33 10° NNE
NOSS 3-4 (A) 4.3 05:48:19 11° W 05:53:25 31° NNW 05:59:09 10° NNE
NOSS 3-4 (C) 4.3 05:48:23 11° W 05:53:32 31° NNW 05:59:17 10° NNE
SL-4 R/B 2.3 05:50:37 14° WNW 05:53:49 48° N 05:57:20 10° E
Cosmos 2184 Rocket 4.5 05:49:04 10° SW 05:54:54 38° WNW 06:00:48 10° N
USA 234 3.6 05:51:13 10° NE 05:57:46 71° SE 06:04:18 10° SW
Cosmos 1356 3.4 05:55:19 10° S 05:58:43 87° ESE 06:02:09 10° NNE
FALCON 9 DEB 3.6 05:56:58 11° W 05:59:46 38° NNW 06:02:50 10° NE
Cosmos 1844 Rocket 3.1 05:56:23 10° WSW 06:01:42 41° NW 06:07:04 10° NNE
FALCON 9 DEB 3.7 05:59:52 11° WNW 06:03:05 47° NNE 06:06:27 10° E
Cosmos 1707 Rocket 3.5 06:02:22 10° NNW 06:06:41 64° W 06:10:57 10° S
EXPRESS MD2 4.3 06:03:38 10° WNW 06:07:40 75° SSW 06:16:08 10° ESE
MOS 1-B 4.4 06:02:30 10° N 06:08:16 65° WNW 06:14:00 10° SSW
COSMOS 2455 2.8 06:03:46 10° SW 06:09:48 73° NW 06:15:52 10° NNE
RESURS DK-1 3.6 06:06:57 10° W 06:10:13 22° NW 06:13:31 10° N
ATLAS CENTAUR R/B 3.0 06:08:36 10° WNW 06:11:02 16° WSW 06:13:31 10° SSW
BREEZE-M (TANK) 4.0 06:05:03 10° SW 06:11:05 39° SSE 06:13:32 10° E
NOAA 6 4.2 06:06:26 10° N 06:11:24 52° WNW 06:16:20 10° SW
BREEZE-M DEB 4.5 06:03:41 10° WNW 06:11:31 32° SW 06:14:29 10° SSE
ATLAS 2AS CENTAUR R/B 3.6 06:06:08 10° W 06:13:21 36° NNW 06:20:24 10° NE
ERBS 4.3 06:11:44 10° NW 06:13:50 16° N 06:15:57 10° NE
H-2A R/B 4.0 06:10:53 10° NNW 06:13:56 22° WNW 06:16:57 10° WSW
Cosmos 1844 4.1 06:10:26 10° WSW 06:15:37 39° NW 06:20:52 10° NNE
USA 290 4.2 06:12:45 10° N 06:15:38 27° ENE 06:18:28 10° ESE
CZ-4B DEB 4.4 06:11:17 10° N 06:16:32 48° WNW 06:21:44 10° SW
Lacrosse 5 2.7 06:12:19 10° W 06:16:57 34° NNW 06:21:35 10° NE
Cosmos 1437 Rocket 3.8 06:14:01 10° NW 06:17:10 25° W 06:20:17 10° SSW
Cosmos 372 Rocket 4.2 06:14:00 10° SW 06:18:55 49° WNW 06:23:53 10° NNE
Okean O Rocket 1.6 06:15:48 10° N 06:20:12 66° WNW 06:24:37 10° SSW
Geosat 4.0 06:16:39 10° SSE 06:21:40 79° WSW 06:26:44 10° NNW
